Time,TemperatureF,DewpointF,PressureIn,WindDirection,WindDirectionDegrees,WindSpeedMPH,WindSpeedGustMPH,Humidity,HourlyPrecipIn,Conditions,Clouds,dailyrainin,SolarRadiationWatts/m^2,SoftwareType,DateUTC
2013-03-19 00:00:00,35.0,33.9,29.89,North,355,3.0,4.0,96,0.00,,,0.51,0,HR-IXPWINDi_r2_v1.2.,2013-03-19 04:00:00,
2013-03-19 00:05:00,35.1,34.0,29.89,North,355,2.0,5.0,96,0.00,,,0.00,0,HR-IXPWINDi_r2_v1.2.,2013-03-19 04:05:00,
2013-03-19 00:10:00,35.1,34.0,29.88,North,355,0.0,6.0,96,0.00,,,0.00,0,HR-IXPWINDi_r2_v1.2.,2013-03-19 04:10:00,
2013-03-19 00:15:00,35.1,34.0,29.88,North,355,3.0,6.0,96,0.00,,,0.00,0,HR-IXPWINDi_r2_v1.2.,2013-03-19 04:15:00,
2013-03-19 00:20:00,35.1,34.0,29.88,North,355,2.0,6.0,96,0.00,,,0.00,0,HR-IXPWINDi_r2_v1.2.,2013-03-19 04:20:00,
2013-03-19 00:25:00,35.0,33.9,29.87,North,355,1.0,4.0,96,0.00,,,0.00,0,HR-IXPWINDi_r2_v1.2.,2013-03-19 04:25:00,
2013-03-19 00:30:00,35.0,33.9,29.86,North,355,0.0,4.0,96,0.00,,,0.00,0,HR-IXPWINDi_r2_v1.2.,2013-03-19 04:30:00,
2013-03-19 00:36:00,35.0,33.9,29.86,North,355,0.0,3.0,96,0.00,,,0.00,0,HR-IXPWINDi_r2_v1.2.,2013-03-19 04:36:00,
2013-03-19 00:41:00,35.1,34.0,29.86,North,355,0.0,1.0,96,0.00,,,0.00,0,HR-IXPWINDi_r2_v1.2.,2013-03-19 04:41:00,
2013-03-19 00:46:00,35.1,34.0,29.85,North,355,0.0,2.0,96,0.00,,,0.00,0,HR-IXPWINDi_r2_v1.2.,2013-03-19 04:46:00,
2013-03-19 00:51:00,35.1,34.0,29.85,North,355,0.0,2.0,96,0.00,,,0.00,0,HR-IXPWINDi_r2_v1.2.,2013-03-19 04:51:00,
2013-03-19 00:56:00,35.1,34.0,29.85,North,355,0.0,2.0,96,0.00,,,0.00,0,HR-IXPWINDi_r2_v1.2.,2013-03-19 04:56:00,
2013-03-19 01:01:00,35.1,34.0,29.85,North,355,0.0,2.0,96,0.00,,,0.00,0,HR-IXPWINDi_r2_v1.2.,2013-03-19 05:01:00,
2013-03-19 01:07:00,35.1,34.0,29.85,North,355,0.0,2.0,96,0.00,,,0.00,0,HR-IXPWINDi_r2_v1.2.,2013-03-19 05:07:00,
2013-03-19 01:12:00,35.1,34.0,29.84,North,355,0.0,0.0,96,0.00,,,0.00,0,HR-IXPWINDi_r2_v1.2.,2013-03-19 05:12:00,
2013-03-19 01:17:00,35.2,34.1,29.84,North,355,0.0,2.0,96,0.00,,,0.00,0,HR-IXPWINDi_r2_v1.2.,2013-03-19 05:17:00,
2013-03-19 01:23:00,35.2,34.1,29.84,North,355,1.0,3.0,96,0.00,,,0.00,0,HR-IXPWINDi_r2_v1.2.,2013-03-19 05:23:00,
2013-03-19 01:28:00,35.2,34.1,29.84,North,355,0.0,3.0,96,0.00,,,0.00,0,HR-IXPWINDi_r2_v1.2.,2013-03-19 05:28:00,
2013-03-19 01:33:00,35.2,34.1,29.84,North,355,0.0,2.0,96,0.00,,,0.00,0,HR-IXPWINDi_r2_v1.2.,2013-03-19 05:33:00,
2013-03-19 01:38:00,35.2,34.1,29.84,North,355,0.0,2.0,96,0.00,,,0.00,0,HR-IXPWINDi_r2_v1.2.,2013-03-19 05:38:00,
2013-03-19 01:43:00,35.2,34.1,29.83,North,355,0.0,0.0,96,0.00,,,0.00,0,HR-IXPWINDi_r2_v1.2.,2013-03-19 05:43:00,
2013-03-19 01:49:00,35.2,34.1,29.83,North,355,0.0,2.0,96,0.00,,,0.00,0,HR-IXPWINDi_r2_v1.2.,2013-03-19 05:49:00,
2013-03-19 01:54:00,35.2,34.1,29.83,North,355,0.0,2.0,96,0.00,,,0.00,0,HR-IXPWINDi_r2_v1.2.,2013-03-19 05:54:00,
2013-03-19 01:59:00,35.2,34.1,29.83,North,355,0.0,0.0,96,0.00,,,0.00,0,HR-IXPWINDi_r2_v1.2.,2013-03-19 05:59:00,
2013-03-19 02:04:00,35.2,34.1,29.83,North,355,0.0,2.0,96,0.00,,,0.00,0,HR-IXPWINDi_r2_v1.2.,2013-03-19 06:04:00,
2013-03-19 02:09:00,35.2,34.1,29.82,North,355,0.0,2.0,96,0.00,,,0.00,0,HR-IXPWINDi_r2_v1.2.,2013-03-19 06:09:00,
2013-03-19 02:15:00,35.2,34.1,29.82,North,355,0.0,0.0,96,0.00,,,0.00,0,HR-IXPWINDi_r2_v1.2.,2013-03-19 06:15:00,
2013-03-19 02:20:00,35.2,34.1,29.82,North,355,0.0,2.0,96,0.00,,,0.00,0,HR-IXPWINDi_r2_v1.2.,2013-03-19 06:20:00,
2013-03-19 02:25:00,35.2,34.1,29.81,North,355,0.0,2.0,96,0.00,,,0.00,0,HR-IXPWINDi_r2_v1.2.,2013-03-19 06:25:00,
2013-03-19 02:30:00,35.2,34.1,29.81,North,355,0.0,3.0,96,0.00,,,0.00,0,HR-IXPWINDi_r2_v1.2.,2013-03-19 06:30:00,
2013-03-19 02:35:00,35.2,34.1,29.81,North,355,2.0,4.0,96,0.00,,,0.00,0,HR-IXPWINDi_r2_v1.2.,2013-03-19 06:35:00,
2013-03-19 02:41:00,35.1,34.0,29.81,North,355,1.0,4.0,96,0.00,,,0.00,0,HR-IXPWINDi_r2_v1.2.,2013-03-19 06:41:00,
2013-03-19 02:46:00,35.1,34.0,29.81,North,355,1.0,3.0,96,0.00,,,0.00,0,HR-IXPWINDi_r2_v1.2.,2013-03-19 06:46:00,
2013-03-19 02:51:00,35.1,34.0,29.81,North,355,2.0,4.0,96,0.00,,,0.00,0,HR-IXPWINDi_r2_v1.2.,2013-03-19 06:51:00,
2013-03-19 02:57:00,35.1,34.0,29.81,North,355,0.0,4.0,96,0.00,,,0.00,0,HR-IXPWINDi_r2_v1.2.,2013-03-19 06:57:00,
2013-03-19 03:02:00,35.0,33.9,29.80,North,355,0.0,3.0,96,0.00,,,0.00,0,HR-IXPWINDi_r2_v1.2.,2013-03-19 07:02:00,
2013-03-19 03:07:00,35.0,33.9,29.80,North,355,0.0,2.0,96,0.00,,,0.00,0,HR-IXPWINDi_r2_v1.2.,2013-03-19 07:07:00,
2013-03-19 03:12:00,35.0,33.9,29.80,North,355,0.0,5.0,96,0.00,,,0.00,0,HR-IXPWINDi_r2_v1.2.,2013-03-19 07:12:00,
2013-03-19 03:17:00,35.0,33.9,29.80,North,355,0.0,5.0,96,0.00,,,0.00,0,HR-IXPWINDi_r2_v1.2.,2013-03-19 07:17:00,
2013-03-19 03:23:00,34.9,33.8,29.80,North,355,0.0,5.0,96,0.00,,,0.00,0,HR-IXPWINDi_r2_v1.2.,2013-03-19 07:23:00,
2013-03-19 03:28:00,34.9,33.8,29.79,North,355,0.0,2.0,96,0.00,,,0.00,0,HR-IXPWINDi_r2_v1.2.,2013-03-19 07:28:00,
2013-03-19 03:33:00,34.9,33.8,29.79,North,355,0.0,3.0,96,0.00,,,0.00,0,HR-IXPWINDi_r2_v1.2.,2013-03-19 07:33:00,
2013-03-19 03:38:00,34.9,33.8,29.78,North,355,0.0,3.0,96,0.00,,,0.00,0,HR-IXPWINDi_r2_v1.2.,2013-03-19 07:38:00,
2013-03-19 03:43:00,34.8,33.7,29.78,North,355,0.0,3.0,96,0.00,,,0.00,0,HR-IXPWINDi_r2_v1.2.,2013-03-19 07:43:00,
2013-03-19 03:49:00,34.8,33.7,29.78,North,355,0.0,0.0,96,0.00,,,0.00,0,HR-IXPWINDi_r2_v1.2.,2013-03-19 07:49:00,
2013-03-19 03:54:00,34.8,34.0,29.77,North,355,0.0,0.0,97,0.00,,,0.00,0,HR-IXPWINDi_r2_v1.2.,2013-03-19 07:54:00,
2013-03-19 03:59:00,34.8,34.0,29.78,North,355,0.0,1.0,97,0.00,,,0.00,0,HR-IXPWINDi_r2_v1.2.,2013-03-19 07:59:00,
2013-03-19 04:04:00,34.8,34.0,29.77,North,355,0.0,1.0,97,0.00,,,0.00,0,HR-IXPWINDi_r2_v1.2.,2013-03-19 08:04:00,
2013-03-19 04:09:00,34.8,34.0,29.77,North,355,0.0,0.0,97,0.00,,,0.00,0,HR-IXPWINDi_r2_v1.2.,2013-03-19 08:09:00,
2013-03-19 04:14:00,34.8,34.0,29.77,North,355,0.0,0.0,97,0.00,,,0.00,0,HR-IXPWINDi_r2_v1.2.,2013-03-19 08:14:00,
2013-03-19 04:19:00,34.8,34.0,29.77,North,355,0.0,0.0,97,0.00,,,0.00,0,HR-IXPWINDi_r2_v1.2.,2013-03-19 08:19:00,
2013-03-19 04:24:00,34.8,34.0,29.77,North,355,0.0,0.0,97,0.00,,,0.00,0,HR-IXPWINDi_r2_v1.2.,2013-03-19 08:24:00,
2013-03-19 04:29:00,34.9,34.1,29.75,North,355,0.0,2.0,97,0.00,,,0.00,0,HR-IXPWINDi_r2_v1.2.,2013-03-19 08:29:00,
2013-03-19 04:35:00,34.9,34.1,29.76,North,355,0.0,2.0,97,0.00,,,0.00,0,HR-IXPWINDi_r2_v1.2.,2013-03-19 08:35:00,
2013-03-19 04:40:00,34.9,34.1,29.76,North,355,0.0,3.0,97,0.00,,,0.00,0,HR-IXPWINDi_r2_v1.2.,2013-03-19 08:40:00,
2013-03-19 04:45:00,34.9,34.1,29.76,North,355,0.0,3.0,97,0.00,,,0.00,0,HR-IXPWINDi_r2_v1.2.,2013-03-19 08:45:00,
2013-03-19 04:51:00,34.9,34.1,29.76,North,355,0.0,2.0,97,0.00,,,0.00,0,HR-IXPWINDi_r2_v1.2.,2013-03-19 08:51:00,
2013-03-19 04:56:00,34.8,34.0,29.76,North,355,0.0,0.0,97,0.00,,,0.00,0,HR-IXPWINDi_r2_v1.2.,2013-03-19 08:56:00,
2013-03-19 05:01:00,34.8,34.0,29.76,North,355,0.0,0.0,97,0.00,,,0.00,0,HR-IXPWINDi_r2_v1.2.,2013-03-19 09:01:00,
2013-03-19 05:06:00,34.9,34.1,29.76,North,355,0.0,3.0,97,0.00,,,0.00,0,HR-IXPWINDi_r2_v1.2.,2013-03-19 09:06:00,
2013-03-19 05:12:00,34.9,34.1,29.75,North,355,2.0,3.0,97,0.00,,,0.00,0,HR-IXPWINDi_r2_v1.2.,2013-03-19 09:12:00,
2013-03-19 05:17:00,34.9,34.1,29.75,North,355,0.0,3.0,97,0.00,,,0.00,0,HR-IXPWINDi_r2_v1.2.,2013-03-19 09:17:00,
2013-03-19 05:22:00,35.0,34.2,29.75,North,355,0.0,4.0,97,0.00,,,0.00,0,HR-IXPWINDi_r2_v1.2.,2013-03-19 09:22:00,
2013-03-19 05:27:00,35.0,34.2,29.75,North,355,0.0,4.0,97,0.00,,,0.00,0,HR-IXPWINDi_r2_v1.2.,2013-03-19 09:27:00,
2013-03-19 05:32:00,35.0,34.2,29.75,North,355,0.0,3.0,97,0.00,,,0.00,0,HR-IXPWINDi_r2_v1.2.,2013-03-19 09:32:00,
2013-03-19 05:37:00,35.0,34.2,29.75,North,355,0.0,1.0,97,0.00,,,0.00,0,HR-IXPWINDi_r2_v1.2.,2013-03-19 09:37:00,
2013-03-19 05:42:00,35.0,34.2,29.75,North,355,0.0,2.0,97,0.00,,,0.00,0,HR-IXPWINDi_r2_v1.2.,2013-03-19 09:42:00,
2013-03-19 05:47:00,35.0,34.2,29.75,North,355,2.0,2.0,97,0.00,,,0.00,0,HR-IXPWINDi_r2_v1.2.,2013-03-19 09:47:00,
2013-03-19 05:52:00,35.0,34.2,29.75,North,355,0.0,3.0,97,0.00,,,0.00,0,HR-IXPWINDi_r2_v1.2.,2013-03-19 09:52:00,
2013-03-19 05:58:00,35.0,34.2,29.75,North,355,0.0,2.0,97,0.00,,,0.00,0,HR-IXPWINDi_r2_v1.2.,2013-03-19 09:58:00,
2013-03-19 06:03:00,35.0,34.2,29.74,North,355,0.0,0.0,97,0.00,,,0.00,0,HR-IXPWINDi_r2_v1.2.,2013-03-19 10:03:00,
2013-03-19 06:08:00,35.0,34.2,29.74,North,355,0.0,1.0,97,0.00,,,0.00,0,HR-IXPWINDi_r2_v1.2.,2013-03-19 10:08:00,
2013-03-19 06:13:00,35.0,34.2,29.75,North,355,0.0,1.0,97,0.00,,,0.00,0,HR-IXPWINDi_r2_v1.2.,2013-03-19 10:13:00,
2013-03-19 06:18:00,35.0,34.2,29.75,North,355,0.0,0.0,97,0.00,,,0.00,0,HR-IXPWINDi_r2_v1.2.,2013-03-19 10:18:00,
2013-03-19 06:23:00,35.0,34.2,29.76,North,355,0.0,4.0,97,0.00,,,0.00,0,HR-IXPWINDi_r2_v1.2.,2013-03-19 10:23:00,
2013-03-19 06:28:00,35.0,34.2,29.76,North,355,0.0,4.0,97,0.00,,,0.00,0,HR-IXPWINDi_r2_v1.2.,2013-03-19 10:28:00,
2013-03-19 06:34:00,35.1,34.3,29.76,North,355,0.0,2.0,97,0.00,,,0.00,0,HR-IXPWINDi_r2_v1.2.,2013-03-19 10:34:00,
2013-03-19 06:39:00,35.1,34.3,29.76,North,355,0.0,3.0,97,0.00,,,0.00,0,HR-IXPWINDi_r2_v1.2.,2013-03-19 10:39:00,
2013-03-19 06:44:00,35.1,34.3,29.76,North,355,0.0,5.0,97,0.00,,,0.00,0,HR-IXPWINDi_r2_v1.2.,2013-03-19 10:44:00,
2013-03-19 06:49:00,35.1,34.3,29.76,North,355,0.0,5.0,97,0.00,,,0.00,0,HR-IXPWINDi_r2_v1.2.,2013-03-19 10:49:00,
2013-03-19 06:54:00,35.1,34.3,29.76,North,355,0.0,4.0,97,0.00,,,0.00,0,HR-IXPWINDi_r2_v1.2.,2013-03-19 10:54:00,
2013-03-19 06:59:00,35.1,34.3,29.77,North,355,0.0,2.0,97,0.00,,,0.00,0,HR-IXPWINDi_r2_v1.2.,2013-03-19 10:59:00,
2013-03-19 07:05:00,35.1,34.3,29.77,North,355,0.0,3.0,97,0.00,,,0.00,0,HR-IXPWINDi_r2_v1.2.,2013-03-19 11:05:00,
2013-03-19 07:10:00,35.1,34.3,29.77,North,355,0.0,4.0,97,0.00,,,0.00,0,HR-IXPWINDi_r2_v1.2.,2013-03-19 11:10:00,
2013-03-19 07:15:00,35.1,34.3,29.78,North,355,0.0,4.0,97,0.00,,,0.00,0,HR-IXPWINDi_r2_v1.2.,2013-03-19 11:15:00,
2013-03-19 07:20:00,35.1,34.3,29.78,North,355,0.0,4.0,97,0.00,,,0.00,0,HR-IXPWINDi_r2_v1.2.,2013-03-19 11:20:00,
2013-03-19 07:25:00,35.2,34.4,29.78,North,355,0.0,4.0,97,0.00,,,0.00,0,HR-IXPWINDi_r2_v1.2.,2013-03-19 11:25:00,
2013-03-19 07:30:00,35.2,34.4,29.79,North,355,0.0,6.0,97,0.00,,,0.00,0,HR-IXPWINDi_r2_v1.2.,2013-03-19 11:30:00,
2013-03-19 07:36:00,35.2,34.4,29.80,North,355,5.0,6.0,97,0.00,,,0.00,0,HR-IXPWINDi_r2_v1.2.,2013-03-19 11:36:00,
2013-03-19 07:41:00,35.3,34.5,29.80,North,355,4.0,6.0,97,0.00,,,0.00,0,HR-IXPWINDi_r2_v1.2.,2013-03-19 11:41:00,
2013-03-19 07:46:00,35.4,34.6,29.80,North,355,0.0,6.0,97,0.00,,,0.00,0,HR-IXPWINDi_r2_v1.2.,2013-03-19 11:46:00,
2013-03-19 07:51:00,35.4,34.6,29.80,North,355,0.0,6.0,97,0.00,,,0.00,0,HR-IXPWINDi_r2_v1.2.,2013-03-19 11:51:00,
2013-03-19 07:57:00,35.5,34.7,29.79,North,355,0.0,3.0,97,0.00,,,0.00,0,HR-IXPWINDi_r2_v1.2.,2013-03-19 11:57:00,
2013-03-19 08:02:00,35.5,34.7,29.79,North,355,0.0,0.0,97,0.00,,,0.00,5,HR-IXPWINDi_r2_v1.2.,2013-03-19 12:02:00,
2013-03-19 08:07:00,35.6,34.8,29.79,North,355,0.0,3.0,97,0.00,,,0.00,18,HR-IXPWINDi_r2_v1.2.,2013-03-19 12:07:00,
2013-03-19 08:12:00,35.7,34.9,29.79,North,355,0.0,3.0,97,0.00,,,0.00,16,HR-IXPWINDi_r2_v1.2.,2013-03-19 12:12:00,
2013-03-19 08:17:00,35.7,34.9,29.79,North,355,0.0,0.0,97,0.00,,,0.00,11,HR-IXPWINDi_r2_v1.2.,2013-03-19 12:17:00,
2013-03-19 08:23:00,35.8,35.0,29.79,North,355,0.0,0.0,97,0.00,,,0.00,21,HR-IXPWINDi_r2_v1.2.,2013-03-19 12:23:00,
2013-03-19 08:28:00,35.9,35.1,29.79,North,355,0.0,1.0,97,0.00,,,0.00,18,HR-IXPWINDi_r2_v1.2.,2013-03-19 12:28:00,
2013-03-19 08:33:00,36.0,35.2,29.80,North,355,0.0,1.0,97,0.00,,,0.00,30,HR-IXPWINDi_r2_v1.2.,2013-03-19 12:33:00,
2013-03-19 08:38:00,36.0,35.2,29.80,North,355,0.0,0.0,97,0.00,,,0.00,39,HR-IXPWINDi_r2_v1.2.,2013-03-19 12:38:00,
2013-03-19 08:43:00,36.1,35.3,29.80,North,355,0.0,0.0,97,0.00,,,0.00,62,HR-IXPWINDi_r2_v1.2.,2013-03-19 12:43:00,
2013-03-19 08:49:00,36.3,35.5,29.80,North,355,0.0,0.0,97,0.00,,,0.00,77,HR-IXPWINDi_r2_v1.2.,2013-03-19 12:49:00,
2013-03-19 08:54:00,36.4,35.6,29.80,North,355,0.0,1.0,97,0.00,,,0.00,86,HR-IXPWINDi_r2_v1.2.,2013-03-19 12:54:00,
2013-03-19 08:59:00,36.5,35.7,29.80,North,355,0.0,1.0,97,0.00,,,0.00,65,HR-IXPWINDi_r2_v1.2.,2013-03-19 12:59:00,
2013-03-19 09:04:00,36.6,35.8,29.80,North,355,0.0,1.0,97,0.00,,,0.00,49,HR-IXPWINDi_r2_v1.2.,2013-03-19 13:04:00,
2013-03-19 09:09:00,36.8,36.0,29.80,North,355,0.0,1.0,97,0.00,,,0.00,120,HR-IXPWINDi_r2_v1.2.,2013-03-19 13:09:00,
2013-03-19 09:14:00,37.1,36.3,29.80,North,355,0.0,1.0,97,0.00,,,0.00,185,HR-IXPWINDi_r2_v1.2.,2013-03-19 13:14:00,
2013-03-19 09:19:00,37.4,36.6,29.80,North,355,0.0,0.0,97,0.00,,,0.00,118,HR-IXPWINDi_r2_v1.2.,2013-03-19 13:19:00,
2013-03-19 09:24:00,37.6,36.8,29.81,North,355,1.0,3.0,97,0.00,,,0.00,118,HR-IXPWINDi_r2_v1.2.,2013-03-19 13:24:00,
2013-03-19 09:29:00,37.7,36.9,29.81,North,355,0.0,3.0,97,0.00,,,0.00,137,HR-IXPWINDi_r2_v1.2.,2013-03-19 13:29:00,
2013-03-19 09:35:00,38.0,37.2,29.80,North,355,0.0,3.0,97,0.00,,,0.00,285,HR-IXPWINDi_r2_v1.2.,2013-03-19 13:35:00,
2013-03-19 09:40:00,38.3,37.7,29.80,North,355,0.0,0.0,98,0.00,,,0.00,174,HR-IXPWINDi_r2_v1.2.,2013-03-19 13:40:00,
2013-03-19 09:45:00,38.6,37.8,29.80,North,355,0.0,0.0,97,0.00,,,0.00,200,HR-IXPWINDi_r2_v1.2.,2013-03-19 13:45:00,
2013-03-19 09:50:00,38.9,38.3,29.80,North,355,0.0,1.0,98,0.00,,,0.00,223,HR-IXPWINDi_r2_v1.2.,2013-03-19 13:50:00,
2013-03-19 09:55:00,39.2,38.4,29.80,North,355,0.0,1.0,97,0.00,,,0.00,232,HR-IXPWINDi_r2_v1.2.,2013-03-19 13:55:00,
2013-03-19 10:01:00,39.5,38.9,29.80,North,355,1.0,3.0,98,0.00,,,0.00,171,HR-IXPWINDi_r2_v1.2.,2013-03-19 14:01:00,
2013-03-19 10:06:00,39.9,39.3,29.80,North,355,0.0,5.0,98,0.00,,,0.00,316,HR-IXPWINDi_r2_v1.2.,2013-03-19 14:06:00,
2013-03-19 10:11:00,40.5,39.9,29.79,NNW,343,7.0,8.0,98,0.00,,,0.00,533,HR-IXPWINDi_r2_v1.2.,2013-03-19 14:11:00,
2013-03-19 10:16:00,41.0,40.4,29.79,NW,306,2.0,10.0,98,0.00,,,0.00,512,HR-IXPWINDi_r2_v1.2.,2013-03-19 14:16:00,
2013-03-19 10:21:00,41.5,40.9,29.80,NW,322,3.0,10.0,98,0.00,,,0.00,531,HR-IXPWINDi_r2_v1.2.,2013-03-19 14:21:00,
2013-03-19 10:27:00,41.9,41.3,29.79,NNW,327,9.0,11.0,98,0.00,,,0.00,540,HR-IXPWINDi_r2_v1.2.,2013-03-19 14:27:00,
2013-03-19 10:32:00,42.3,41.7,29.79,NW,309,0.0,11.0,98,0.00,,,0.00,550,HR-IXPWINDi_r2_v1.2.,2013-03-19 14:32:00,
2013-03-19 10:37:00,43.0,42.4,29.79,NNW,339,3.0,9.0,98,0.00,,,0.00,564,HR-IXPWINDi_r2_v1.2.,2013-03-19 14:37:00,
2013-03-19 10:44:00,43.9,43.3,29.79,NNW,344,4.0,8.0,98,0.00,,,0.00,578,HR-IXPWINDi_r2_v1.2.,2013-03-19 14:44:00,
2013-03-19 10:49:00,44.5,43.6,29.78,NW,310,9.0,11.0,97,0.00,,,0.00,598,HR-IXPWINDi_r2_v1.2.,2013-03-19 14:49:00,
2013-03-19 10:54:00,45.2,44.3,29.78,NW,323,6.0,11.0,97,0.00,,,0.00,615,HR-IXPWINDi_r2_v1.2.,2013-03-19 14:54:00,
2013-03-19 10:59:00,45.9,45.0,29.78,NNW,348,5.0,9.0,97,0.00,,,0.00,626,HR-IXPWINDi_r2_v1.2.,2013-03-19 14:59:00,
2013-03-19 11:04:00,46.5,45.1,29.78,NNW,327,5.0,12.0,95,0.00,,,0.00,642,HR-IXPWINDi_r2_v1.2.,2013-03-19 15:04:00,
2013-03-19 11:10:00,47.0,44.7,29.78,NW,323,5.0,12.0,92,0.00,,,0.00,647,HR-IXPWINDi_r2_v1.2.,2013-03-19 15:10:00,
2013-03-19 11:15:00,47.7,44.6,29.78,NW,320,0.0,10.0,89,0.00,,,0.00,663,HR-IXPWINDi_r2_v1.2.,2013-03-19 15:15:00,
2013-03-19 11:20:00,48.3,44.6,29.78,NNW,336,7.0,10.0,87,0.00,,,0.00,677,HR-IXPWINDi_r2_v1.2.,2013-03-19 15:20:00,
2013-03-19 11:25:00,49.1,43.8,29.77,WNW,300,7.0,13.0,82,0.00,,,0.00,687,HR-IXPWINDi_r2_v1.2.,2013-03-19 15:25:00,
2013-03-19 11:30:00,49.6,42.0,29.77,North,9,2.0,13.0,75,0.00,,,0.00,700,HR-IXPWINDi_r2_v1.2.,2013-03-19 15:30:00,
2013-03-19 11:35:00,50.2,41.8,29.78,WNW,292,0.0,13.0,73,0.00,,,0.00,722,HR-IXPWINDi_r2_v1.2.,2013-03-19 15:35:00,
2013-03-19 11:40:00,50.7,42.0,29.77,WNW,302,6.0,12.0,72,0.00,,,0.00,677,HR-IXPWINDi_r2_v1.2.,2013-03-19 15:40:00,
2013-03-19 11:46:00,51.3,42.2,29.77,North,5,3.0,10.0,71,0.00,,,0.00,837,HR-IXPWINDi_r2_v1.2.,2013-03-19 15:46:00,
2013-03-19 11:51:00,51.8,42.3,29.77,NNW,331,5.0,13.0,70,0.00,,,0.00,828,HR-IXPWINDi_r2_v1.2.,2013-03-19 15:51:00,
2013-03-19 11:56:00,52.1,41.4,29.77,NW,307,0.0,13.0,67,0.00,,,0.00,761,HR-IXPWINDi_r2_v1.2.,2013-03-19 15:56:00,
2013-03-19 12:01:00,52.3,40.0,29.76,West,263,0.0,11.0,63,0.00,,,0.00,784,HR-IXPWINDi_r2_v1.2.,2013-03-19 16:01:00,
2013-03-19 12:06:00,52.6,39.9,29.76,WSW,246,0.0,9.0,62,0.00,,,0.00,772,HR-IXPWINDi_r2_v1.2.,2013-03-19 16:06:00,
2013-03-19 12:11:00,52.6,41.5,29.76,SW,230,0.0,7.0,66,0.00,,,0.00,847,HR-IXPWINDi_r2_v1.2.,2013-03-19 16:11:00,
2013-03-19 12:16:00,53.0,41.5,29.76,NW,323,4.0,7.0,65,0.00,,,0.00,798,HR-IXPWINDi_r2_v1.2.,2013-03-19 16:16:00,
2013-03-19 12:22:00,53.5,42.4,29.76,NW,325,6.0,8.0,66,0.00,,,0.00,800,HR-IXPWINDi_r2_v1.2.,2013-03-19 16:22:00,
2013-03-19 12:27:00,53.9,42.0,29.76,NNW,331,0.0,8.0,64,0.00,,,0.00,889,HR-IXPWINDi_r2_v1.2.,2013-03-19 16:27:00,
2013-03-19 12:32:00,54.3,41.5,29.75,WNW,290,0.0,6.0,62,0.00,,,0.00,802,HR-IXPWINDi_r2_v1.2.,2013-03-19 16:32:00,
2013-03-19 12:37:00,54.9,40.8,29.75,WNW,287,7.0,13.0,59,0.00,,,0.00,805,HR-IXPWINDi_r2_v1.2.,2013-03-19 16:37:00,
2013-03-19 12:42:00,55.1,39.2,29.75,WNW,290,11.0,13.0,55,0.00,,,0.00,758,HR-IXPWINDi_r2_v1.2.,2013-03-19 16:42:00,
2013-03-19 12:47:00,55.4,40.4,29.74,West,266,0.0,13.0,57,0.00,,,0.00,816,HR-IXPWINDi_r2_v1.2.,2013-03-19 16:47:00,
2013-03-19 12:52:00,55.7,38.3,29.75,WSW,255,4.0,13.0,52,0.00,,,0.00,817,HR-IXPWINDi_r2_v1.2.,2013-03-19 16:52:00,
2013-03-19 12:57:00,55.9,39.0,29.75,SSW,213,4.0,16.0,53,0.00,,,0.00,816,HR-IXPWINDi_r2_v1.2.,2013-03-19 16:57:00,
2013-03-19 13:02:00,56.2,38.8,29.75,NW,308,7.0,16.0,52,0.00,,,0.00,814,HR-IXPWINDi_r2_v1.2.,2013-03-19 17:02:00,
2013-03-19 13:08:00,56.4,39.4,29.74,WSW,248,0.0,15.0,53,0.00,,,0.00,819,HR-IXPWINDi_r2_v1.2.,2013-03-19 17:08:00,
2013-03-19 13:13:00,56.5,38.5,29.74,West,261,8.0,15.0,51,0.00,,,0.00,837,HR-IXPWINDi_r2_v1.2.,2013-03-19 17:13:00,
2013-03-19 13:18:00,56.6,37.6,29.75,West,271,6.0,16.0,49,0.00,,,0.00,220,HR-IXPWINDi_r2_v1.2.,2013-03-19 17:18:00,
2013-03-19 13:23:00,56.6,37.6,29.74,WSW,249,4.0,17.0,49,0.00,,,0.00,824,HR-IXPWINDi_r2_v1.2.,2013-03-19 17:23:00,
2013-03-19 13:29:00,56.9,37.9,29.74,WSW,250,9.0,17.0,49,0.00,,,0.00,828,HR-IXPWINDi_r2_v1.2.,2013-03-19 17:29:00,
2013-03-19 13:34:00,57.5,37.4,29.73,SW,232,3.0,15.0,47,0.00,,,0.00,821,HR-IXPWINDi_r2_v1.2.,2013-03-19 17:34:00,
2013-03-19 13:39:00,57.9,37.8,29.73,SSW,203,7.0,10.0,47,0.00,,,0.00,821,HR-IXPWINDi_r2_v1.2.,2013-03-19 17:39:00,
2013-03-19 13:45:00,58.3,39.2,29.73,SW,223,4.0,9.0,49,0.00,,,0.00,821,HR-IXPWINDi_r2_v1.2.,2013-03-19 17:45:00,
2013-03-19 13:50:00,58.5,38.3,29.72,SW,214,6.0,11.0,47,0.00,,,0.00,814,HR-IXPWINDi_r2_v1.2.,2013-03-19 17:50:00,
2013-03-19 13:55:00,58.3,38.1,29.72,SSW,211,4.0,11.0,47,0.00,,,0.00,812,HR-IXPWINDi_r2_v1.2.,2013-03-19 17:55:00,
2013-03-19 14:00:00,58.4,38.2,29.72,SSW,195,6.0,12.0,47,0.00,,,0.00,814,HR-IXPWINDi_r2_v1.2.,2013-03-19 18:00:00,
2013-03-19 14:05:00,58.6,38.9,29.72,SSW,209,6.0,13.0,48,0.00,,,0.00,807,HR-IXPWINDi_r2_v1.2.,2013-03-19 18:05:00,
2013-03-19 14:10:00,59.0,38.8,29.72,SW,219,8.0,13.0,47,0.00,,,0.00,800,HR-IXPWINDi_r2_v1.2.,2013-03-19 18:10:00,
2013-03-19 14:15:00,59.1,39.4,29.72,WNW,296,4.0,13.0,48,0.00,,,0.00,796,HR-IXPWINDi_r2_v1.2.,2013-03-19 18:15:00,
2013-03-19 14:21:00,59.5,39.2,29.71,West,269,0.0,11.0,47,0.00,,,0.00,802,HR-IXPWINDi_r2_v1.2.,2013-03-19 18:21:00,
2013-03-19 14:26:00,59.5,38.7,29.71,SSW,198,5.0,11.0,46,0.00,,,0.00,791,HR-IXPWINDi_r2_v1.2.,2013-03-19 18:26:00,
2013-03-19 14:31:00,59.7,39.4,29.70,SW,217,0.0,9.0,47,0.00,,,0.00,786,HR-IXPWINDi_r2_v1.2.,2013-03-19 18:31:00,
2013-03-19 14:36:00,60.1,39.8,29.70,South,171,3.0,9.0,47,0.00,,,0.00,879,HR-IXPWINDi_r2_v1.2.,2013-03-19 18:36:00,
2013-03-19 14:41:00,60.0,39.7,29.70,WSW,257,0.0,12.0,47,0.00,,,0.00,220,HR-IXPWINDi_r2_v1.2.,2013-03-19 18:41:00,
2013-03-19 14:46:00,59.9,39.6,29.69,SSW,201,2.0,12.0,47,0.00,,,0.00,522,HR-IXPWINDi_r2_v1.2.,2013-03-19 18:46:00,
2013-03-19 14:51:00,60.2,38.7,29.69,SW,216,4.0,11.0,45,0.00,,,0.00,522,HR-IXPWINDi_r2_v1.2.,2013-03-19 18:51:00,
2013-03-19 14:57:00,60.4,38.9,29.69,SW,220,3.0,11.0,45,0.00,,,0.00,800,HR-IXPWINDi_r2_v1.2.,2013-03-19 18:57:00,
2013-03-19 15:02:00,61.0,38.9,29.69,SSW,213,5.0,12.0,44,0.00,,,0.00,807,HR-IXPWINDi_r2_v1.2.,2013-03-19 19:02:00,
2013-03-19 15:07:00,61.1,38.4,29.69,South,186,6.0,12.0,43,0.00,,,0.00,780,HR-IXPWINDi_r2_v1.2.,2013-03-19 19:07:00,
2013-03-19 15:12:00,61.1,38.4,29.68,WSW,240,7.0,11.0,43,0.00,,,0.00,721,HR-IXPWINDi_r2_v1.2.,2013-03-19 19:12:00,
2013-03-19 15:17:00,61.4,36.8,29.68,SSW,200,6.0,13.0,40,0.00,,,0.00,703,HR-IXPWINDi_r2_v1.2.,2013-03-19 19:17:00,
2013-03-19 15:23:00,61.6,36.4,29.68,WSW,248,7.0,14.0,39,0.00,,,0.00,698,HR-IXPWINDi_r2_v1.2.,2013-03-19 19:23:00,
2013-03-19 15:28:00,61.7,36.5,29.68,SSW,197,6.0,14.0,39,0.00,,,0.00,680,HR-IXPWINDi_r2_v1.2.,2013-03-19 19:28:00,
2013-03-19 15:33:00,61.7,35.1,29.68,SSW,205,6.0,15.0,37,0.00,,,0.00,671,HR-IXPWINDi_r2_v1.2.,2013-03-19 19:33:00,
2013-03-19 15:38:00,61.6,35.7,29.69,SSW,205,6.0,15.0,38,0.00,,,0.00,707,HR-IXPWINDi_r2_v1.2.,2013-03-19 19:38:00,
2013-03-19 15:43:00,61.5,35.6,29.69,SW,218,5.0,15.0,38,0.00,,,0.00,708,HR-IXPWINDi_r2_v1.2.,2013-03-19 19:43:00,
2013-03-19 15:48:00,61.1,35.3,29.69,SW,225,0.0,15.0,38,0.00,,,0.00,190,HR-IXPWINDi_r2_v1.2.,2013-03-19 19:48:00,
2013-03-19 15:54:00,61.1,35.3,29.69,WSW,242,13.0,13.0,38,0.00,,,0.00,176,HR-IXPWINDi_r2_v1.2.,2013-03-19 19:54:00,
2013-03-19 15:59:00,60.6,31.3,29.69,WNW,292,18.0,18.0,33,0.00,,,0.00,163,HR-IXPWINDi_r2_v1.2.,2013-03-19 19:59:00,
2013-03-19 16:04:00,60.1,27.7,29.69,West,275,6.0,25.0,29,0.00,,,0.00,677,HR-IXPWINDi_r2_v1.2.,2013-03-19 20:04:00,
2013-03-19 16:09:00,60.3,27.9,29.69,West,265,10.0,25.0,29,0.00,,,0.00,656,HR-IXPWINDi_r2_v1.2.,2013-03-19 20:09:00,
2013-03-19 16:15:00,59.9,27.6,29.70,West,278,10.0,22.0,29,0.00,,,0.00,176,HR-IXPWINDi_r2_v1.2.,2013-03-19 20:15:00,
2013-03-19 16:20:00,59.9,27.6,29.70,SSW,209,10.0,20.0,29,0.00,,,0.00,223,HR-IXPWINDi_r2_v1.2.,2013-03-19 20:20:00,
2013-03-19 16:25:00,59.6,26.4,29.70,SW,232,11.0,20.0,28,0.00,,,0.00,262,HR-IXPWINDi_r2_v1.2.,2013-03-19 20:25:00,
2013-03-19 16:30:00,59.5,28.0,29.70,West,276,13.0,20.0,30,0.00,,,0.00,211,HR-IXPWINDi_r2_v1.2.,2013-03-19 20:30:00,
2013-03-19 16:35:00,59.0,28.4,29.70,NW,304,8.0,19.0,31,0.00,,,0.00,141,HR-IXPWINDi_r2_v1.2.,2013-03-19 20:35:00,
2013-03-19 16:40:00,58.4,27.1,29.71,West,267,12.0,20.0,30,0.00,,,0.00,183,HR-IXPWINDi_r2_v1.2.,2013-03-19 20:40:00,
2013-03-19 16:45:00,58.0,27.5,29.71,West,275,6.0,20.0,31,0.00,,,0.00,158,HR-IXPWINDi_r2_v1.2.,2013-03-19 20:45:00,
2013-03-19 16:51:00,57.9,27.4,29.71,West,273,8.0,20.0,31,0.00,,,0.00,403,HR-IXPWINDi_r2_v1.2.,2013-03-19 20:51:00,
2013-03-19 16:56:00,58.4,27.9,29.71,WNW,284,5.0,18.0,31,0.00,,,0.00,561,HR-IXPWINDi_r2_v1.2.,2013-03-19 20:56:00,
2013-03-19 17:01:00,58.9,27.5,29.71,West,259,11.0,18.0,30,0.00,,,0.00,283,HR-IXPWINDi_r2_v1.2.,2013-03-19 21:01:00,
2013-03-19 17:06:00,59.0,25.9,29.71,WSW,242,11.0,21.0,28,0.00,,,0.00,501,HR-IXPWINDi_r2_v1.2.,2013-03-19 21:06:00,
2013-03-19 17:12:00,59.1,26.0,29.71,WSW,254,6.0,21.0,28,0.00,,,0.00,441,HR-IXPWINDi_r2_v1.2.,2013-03-19 21:12:00,
2013-03-19 17:17:00,59.1,24.2,29.71,SSW,207,10.0,22.0,26,0.00,,,0.00,114,HR-IXPWINDi_r2_v1.2.,2013-03-19 21:17:00,
2013-03-19 17:22:00,58.8,22.1,29.72,WSW,256,20.0,23.0,24,0.00,,,0.00,394,HR-IXPWINDi_r2_v1.2.,2013-03-19 21:22:00,
2013-03-19 17:27:00,58.7,21.0,29.72,West,275,21.0,25.0,23,0.00,,,0.00,374,HR-IXPWINDi_r2_v1.2.,2013-03-19 21:27:00,
2013-03-19 17:32:00,58.5,18.7,29.72,SW,229,16.0,29.0,21,0.00,,,0.00,77,HR-IXPWINDi_r2_v1.2.,2013-03-19 21:32:00,
2013-03-19 17:37:00,58.2,19.5,29.72,West,267,16.0,29.0,22,0.00,,,0.00,58,HR-IXPWINDi_r2_v1.2.,2013-03-19 21:37:00,
2013-03-19 17:42:00,57.9,18.2,29.72,West,267,16.0,29.0,21,0.00,,,0.00,58,HR-IXPWINDi_r2_v1.2.,2013-03-19 21:42:00,
2013-03-19 17:47:00,57.7,16.9,29.73,WNW,286,10.0,26.0,20,0.00,,,0.00,53,HR-IXPWINDi_r2_v1.2.,2013-03-19 21:47:00,
2013-03-19 17:52:00,57.5,14.3,29.72,WSW,255,14.0,33.0,18,0.00,,,0.00,32,HR-IXPWINDi_r2_v1.2.,2013-03-19 21:52:00,
2013-03-19 17:57:00,57.1,14.0,29.73,West,269,13.0,33.0,18,0.00,,,0.00,49,HR-IXPWINDi_r2_v1.2.,2013-03-19 21:57:00,
2013-03-19 18:03:00,56.8,15.0,29.73,SW,236,15.0,24.0,19,0.00,,,0.00,44,HR-IXPWINDi_r2_v1.2.,2013-03-19 22:03:00,
2013-03-19 18:08:00,56.7,14.9,29.73,SW,234,12.0,27.0,19,0.00,,,0.00,37,HR-IXPWINDi_r2_v1.2.,2013-03-19 22:08:00,
2013-03-19 18:13:00,56.6,13.6,29.73,West,276,9.0,27.0,18,0.00,,,0.00,32,HR-IXPWINDi_r2_v1.2.,2013-03-19 22:13:00,
2013-03-19 18:18:00,56.4,13.4,29.74,West,264,20.0,25.0,18,0.00,,,0.00,30,HR-IXPWINDi_r2_v1.2.,2013-03-19 22:18:00,
2013-03-19 18:23:00,56.2,12.0,29.74,WSW,250,15.0,29.0,17,0.00,,,0.01,30,HR-IXPWINDi_r2_v1.2.,2013-03-19 22:23:00,
2013-03-19 18:28:00,55.9,14.3,29.74,WSW,244,14.0,29.0,19,0.00,,,0.01,28,HR-IXPWINDi_r2_v1.2.,2013-03-19 22:28:00,
2013-03-19 18:33:00,55.7,15.3,29.75,WSW,251,1.0,22.0,20,0.00,,,0.01,30,HR-IXPWINDi_r2_v1.2.,2013-03-19 22:33:00,
2013-03-19 18:39:00,55.4,13.8,29.75,WSW,258,13.0,26.0,19,0.00,,,0.01,21,HR-IXPWINDi_r2_v1.2.,2013-03-19 22:39:00,
2013-03-19 18:44:00,55.1,12.4,29.76,West,279,13.0,26.0,18,0.00,,,0.01,19,HR-IXPWINDi_r2_v1.2.,2013-03-19 22:44:00,
2013-03-19 18:49:00,54.8,12.1,29.76,NW,311,3.0,25.0,18,0.00,,,0.01,18,HR-IXPWINDi_r2_v1.2.,2013-03-19 22:49:00,
2013-03-19 18:54:00,54.5,13.1,29.76,SSW,207,11.0,18.0,19,0.00,,,0.01,16,HR-IXPWINDi_r2_v1.2.,2013-03-19 22:54:00,
2013-03-19 18:59:00,54.1,15.0,29.77,WNW,300,12.0,23.0,21,0.00,,,0.01,12,HR-IXPWINDi_r2_v1.2.,2013-03-19 22:59:00,
2013-03-19 19:05:00,53.6,15.7,29.77,West,263,8.0,23.0,22,0.00,,,0.01,11,HR-IXPWINDi_r2_v1.2.,2013-03-19 23:05:00,
2013-03-19 19:10:00,53.2,14.3,29.78,WSW,244,9.0,26.0,21,0.00,,,0.01,9,HR-IXPWINDi_r2_v1.2.,2013-03-19 23:10:00,
2013-03-19 19:15:00,52.9,15.1,29.78,WNW,290,6.0,26.0,22,0.00,,,0.01,5,HR-IXPWINDi_r2_v1.2.,2013-03-19 23:15:00,
2013-03-19 19:20:00,52.7,15.9,29.78,West,262,9.0,15.0,23,0.00,,,0.01,0,HR-IXPWINDi_r2_v1.2.,2013-03-19 23:20:00,
2013-03-19 19:25:00,52.3,13.5,29.78,West,264,8.0,17.0,21,0.00,,,0.01,0,HR-IXPWINDi_r2_v1.2.,2013-03-19 23:25:00,
2013-03-19 19:30:00,52.0,13.3,29.79,WSW,252,8.0,17.0,21,0.00,,,0.01,0,HR-IXPWINDi_r2_v1.2.,2013-03-19 23:30:00,
2013-03-19 19:35:00,51.7,14.1,29.79,West,277,9.0,16.0,22,0.00,,,0.01,0,HR-IXPWINDi_r2_v1.2.,2013-03-19 23:35:00,
2013-03-19 19:40:00,51.4,12.8,29.80,West,267,3.0,17.0,21,0.00,,,0.01,0,HR-IXPWINDi_r2_v1.2.,2013-03-19 23:40:00,
2013-03-19 19:45:00,51.3,12.7,29.80,WNW,298,12.0,17.0,21,0.00,,,0.01,0,HR-IXPWINDi_r2_v1.2.,2013-03-19 23:45:00,
2013-03-19 19:50:00,51.1,12.5,29.80,West,277,4.0,20.0,21,0.00,,,0.01,0,HR-IXPWINDi_r2_v1.2.,2013-03-19 23:50:00,
2013-03-19 19:55:00,50.9,12.4,29.80,West,271,8.0,20.0,21,0.00,,,0.01,0,HR-IXPWINDi_r2_v1.2.,2013-03-19 23:55:00,
2013-03-19 20:01:00,50.9,11.3,29.80,West,275,15.0,27.0,20,0.00,,,0.01,0,HR-IXPWINDi_r2_v1.2.,2013-03-20 00:01:00,
2013-03-19 20:06:00,50.8,11.2,29.80,WNW,298,17.0,27.0,20,0.00,,,0.01,0,HR-IXPWINDi_r2_v1.2.,2013-03-20 00:06:00,
2013-03-19 20:12:00,50.6,12.1,29.81,WSW,257,11.0,20.0,21,0.00,,,0.01,0,HR-IXPWINDi_r2_v1.2.,2013-03-20 00:12:00,
2013-03-19 20:17:00,50.4,12.0,29.81,WNW,286,11.0,20.0,21,0.00,,,0.01,0,HR-IXPWINDi_r2_v1.2.,2013-03-20 00:17:00,
2013-03-19 20:22:00,50.3,10.8,29.81,WSW,252,24.0,24.0,20,0.00,,,0.01,0,HR-IXPWINDi_r2_v1.2.,2013-03-20 00:22:00,
2013-03-19 20:27:00,50.2,10.7,29.82,WSW,250,10.0,24.0,20,0.00,,,0.01,0,HR-IXPWINDi_r2_v1.2.,2013-03-20 00:27:00,
2013-03-19 20:33:00,50.0,10.5,29.82,West,261,17.0,26.0,20,0.00,,,0.01,0,HR-IXPWINDi_r2_v1.2.,2013-03-20 00:33:00,
2013-03-19 20:38:00,49.8,10.4,29.82,West,264,5.0,26.0,20,0.00,,,0.01,0,HR-IXPWINDi_r2_v1.2.,2013-03-20 00:38:00,
2013-03-19 20:43:00,49.6,10.2,29.82,WSW,239,16.0,24.0,20,0.00,,,0.01,0,HR-IXPWINDi_r2_v1.2.,2013-03-20 00:43:00,
2013-03-19 20:48:00,49.6,10.2,29.83,West,275,6.0,27.0,20,0.00,,,0.01,0,HR-IXPWINDi_r2_v1.2.,2013-03-20 00:48:00,
2013-03-19 20:54:00,49.4,11.1,29.83,West,270,9.0,27.0,21,0.00,,,0.01,0,HR-IXPWINDi_r2_v1.2.,2013-03-20 00:54:00,
2013-03-19 20:59:00,49.2,11.0,29.83,West,269,15.0,18.0,21,0.00,,,0.01,0,HR-IXPWINDi_r2_v1.2.,2013-03-20 00:59:00,
2013-03-19 21:04:00,49.0,10.8,29.83,SW,233,11.0,28.0,21,0.00,,,0.01,0,HR-IXPWINDi_r2_v1.2.,2013-03-20 01:04:00,
2013-03-19 21:09:00,48.8,11.7,29.83,WSW,251,9.0,28.0,22,0.00,,,0.01,0,HR-IXPWINDi_r2_v1.2.,2013-03-20 01:09:00,
2013-03-19 21:14:00,48.7,11.6,29.83,West,279,15.0,22.0,22,0.00,,,0.01,0,HR-IXPWINDi_r2_v1.2.,2013-03-20 01:14:00,
2013-03-19 21:20:00,48.7,11.6,29.83,West,264,5.0,22.0,22,0.00,,,0.01,0,HR-IXPWINDi_r2_v1.2.,2013-03-20 01:20:00,
2013-03-19 21:25:00,48.6,11.5,29.84,West,274,8.0,23.0,22,0.00,,,0.01,0,HR-IXPWINDi_r2_v1.2.,2013-03-20 01:25:00,
2013-03-19 21:30:00,48.4,12.3,29.84,West,275,12.0,23.0,23,0.00,,,0.01,0,HR-IXPWINDi_r2_v1.2.,2013-03-20 01:30:00,
2013-03-19 21:35:00,48.2,12.2,29.84,West,262,1.0,18.0,23,0.00,,,0.01,0,HR-IXPWINDi_r2_v1.2.,2013-03-20 01:35:00,
2013-03-19 21:40:00,48.1,12.1,29.84,West,269,3.0,18.0,23,0.00,,,0.01,0,HR-IXPWINDi_r2_v1.2.,2013-03-20 01:40:00,
2013-03-19 21:45:00,47.9,11.9,29.84,West,273,10.0,20.0,23,0.00,,,0.01,0,HR-IXPWINDi_r2_v1.2.,2013-03-20 01:45:00,
2013-03-19 21:50:00,47.7,11.7,29.85,West,269,6.0,20.0,23,0.00,,,0.01,0,HR-IXPWINDi_r2_v1.2.,2013-03-20 01:50:00,
2013-03-19 21:55:00,47.6,11.7,29.85,West,269,10.0,20.0,23,0.00,,,0.01,0,HR-IXPWINDi_r2_v1.2.,2013-03-20 01:55:00,
2013-03-19 22:01:00,47.4,12.4,29.85,West,271,10.0,20.0,24,0.00,,,0.01,0,HR-IXPWINDi_r2_v1.2.,2013-03-20 02:01:00,
2013-03-19 22:06:00,47.3,12.4,29.85,West,268,7.0,19.0,24,0.00,,,0.01,0,HR-IXPWINDi_r2_v1.2.,2013-03-20 02:06:00,
2013-03-19 22:11:00,47.0,12.1,29.86,West,275,8.0,19.0,24,0.00,,,0.01,0,HR-IXPWINDi_r2_v1.2.,2013-03-20 02:11:00,
2013-03-19 22:16:00,46.9,12.0,29.86,West,268,10.0,22.0,24,0.00,,,0.01,0,HR-IXPWINDi_r2_v1.2.,2013-03-20 02:16:00,
2013-03-19 22:22:00,46.7,12.8,29.86,WSW,247,10.0,22.0,25,0.00,,,0.01,0,HR-IXPWINDi_r2_v1.2.,2013-03-20 02:22:00,
2013-03-19 22:27:00,46.6,12.7,29.86,West,265,7.0,20.0,25,0.00,,,0.01,0,HR-IXPWINDi_r2_v1.2.,2013-03-20 02:27:00,
2013-03-19 22:32:00,46.6,11.8,29.86,WSW,246,4.0,21.0,24,0.00,,,0.01,0,HR-IXPWINDi_r2_v1.2.,2013-03-20 02:32:00,
2013-03-19 22:37:00,46.6,11.8,29.87,West,261,11.0,21.0,24,0.00,,,0.01,0,HR-IXPWINDi_r2_v1.2.,2013-03-20 02:37:00,
2013-03-19 22:43:00,46.4,12.5,29.87,West,261,3.0,18.0,25,0.00,,,0.01,0,HR-IXPWINDi_r2_v1.2.,2013-03-20 02:43:00,
2013-03-19 22:48:00,46.3,12.4,29.87,WSW,248,2.0,19.0,25,0.00,,,0.01,0,HR-IXPWINDi_r2_v1.2.,2013-03-20 02:48:00,
2013-03-19 22:53:00,46.1,12.3,29.87,SSW,203,11.0,19.0,25,0.00,,,0.01,0,HR-IXPWINDi_r2_v1.2.,2013-03-20 02:53:00,
2013-03-19 22:58:00,46.0,11.3,29.87,West,262,13.0,26.0,24,0.00,,,0.01,0,HR-IXPWINDi_r2_v1.2.,2013-03-20 02:58:00,
2013-03-19 23:03:00,46.0,10.3,29.87,West,276,14.0,33.0,23,0.00,,,0.01,0,HR-IXPWINDi_r2_v1.2.,2013-03-20 03:03:00,
2013-03-19 23:09:00,46.0,9.3,29.87,SW,234,17.0,33.0,22,0.00,,,0.01,0,HR-IXPWINDi_r2_v1.2.,2013-03-20 03:09:00,
2013-03-19 23:14:00,45.9,10.2,29.88,West,265,19.0,30.0,23,0.00,,,0.01,0,HR-IXPWINDi_r2_v1.2.,2013-03-20 03:14:00,
2013-03-19 23:19:00,45.8,10.1,29.88,WSW,247,10.0,29.0,23,0.00,,,0.01,0,HR-IXPWINDi_r2_v1.2.,2013-03-20 03:19:00,
2013-03-19 23:24:00,45.5,10.8,29.87,West,271,16.0,22.0,24,0.00,,,0.01,0,HR-IXPWINDi_r2_v1.2.,2013-03-20 03:24:00,
2013-03-19 23:29:00,45.2,10.6,29.88,West,278,12.0,22.0,24,0.00,,,0.01,0,HR-IXPWINDi_r2_v1.2.,2013-03-20 03:29:00,
2013-03-19 23:35:00,45.0,11.3,29.88,West,272,9.0,22.0,25,0.00,,,0.01,0,HR-IXPWINDi_r2_v1.2.,2013-03-20 03:35:00,
2013-03-19 23:40:00,44.7,11.1,29.88,West,271,6.0,22.0,25,0.00,,,0.01,0,HR-IXPWINDi_r2_v1.2.,2013-03-20 03:40:00,
2013-03-19 23:45:00,44.5,11.8,29.88,WNW,302,16.0,18.0,26,0.00,,,0.01,0,HR-IXPWINDi_r2_v1.2.,2013-03-20 03:45:00,
2013-03-19 23:50:00,44.4,11.7,29.89,WNW,286,9.0,18.0,26,0.00,,,0.01,0,HR-IXPWINDi_r2_v1.2.,2013-03-20 03:50:00,
2013-03-19 23:55:00,44.1,12.3,29.89,WNW,286,6.0,18.0,27,0.00,,,0.01,0,HR-IXPWINDi_r2_v1.2.,2013-03-20 03:55:00,